Location: Killam
(52.7910°N, 111.8608°W)
Time: 12:10:59
(UTC+00:00)

ISS - Pass Details

Date: 26 January 2026
Orbit: 413 x 428 km, 51.6° (Epoch: 18 February)

Event Time Altitude Azimuth Distance (km) Brightness Sun altitude
Rises 03:04:46 0° 278° (W) 2,370 1.4 -27.6°
Reaches altitude 10° 03:07:31 10° 254° (WSW) 1,506 -0.1 -28.0°
Enters shadow 03:08:44 14° 234° (SW) 1,283 -0.8 -28.2°
